TimeCST,TemperatureF,Dew PointF,Humidity,Sea Level PressureIn,VisibilityMPH,Wind Direction,Wind SpeedMPH,Gust SpeedMPH,PrecipitationIn,Events,Conditions,WindDirDegrees,DateUTC
12:52 AM,37.9,36.0,93,30.06,4.0,SE,4.6,-,N/A,,Overcast,130,2013-11-21 06:52:00
1:52 AM,35.1,34.0,96,30.07,3.0,East,4.6,-,N/A,,Clear,80,2013-11-21 07:52:00
2:12 AM,35.6,33.8,93,30.04,2.5,East,3.5,-,N/A,,Clear,100,2013-11-21 08:12:00
2:24 AM,33.8,33.8,100,30.05,1.8,East,3.5,-,N/A,,Clear,100,2013-11-21 08:24:00
2:52 AM,32.0,30.9,96,30.07,1.0,East,5.8,-,N/A,,Clear,90,2013-11-21 08:52:00
3:17 AM,33.8,33.8,100,30.04,0.8,East,5.8,-,N/A,,Clear,90,2013-11-21 09:17:00
3:23 AM,33.8,32.0,93,30.04,0.2,East,4.6,-,N/A,Fog,Fog,80,2013-11-21 09:23:00
3:39 AM,33.8,33.8,100,30.05,0.8,ENE,4.6,-,N/A,,Mist,70,2013-11-21 09:39:00
3:44 AM,33.8,33.8,100,30.05,1.2,ENE,4.6,-,N/A,,Scattered Clouds,70,2013-11-21 09:44:00
3:52 AM,34.0,33.1,96,30.08,1.8,East,3.5,-,N/A,,Partly Cloudy,80,2013-11-21 09:52:00
4:52 AM,33.1,32.0,96,30.09,2.5,NNE,3.5,-,N/A,,Clear,30,2013-11-21 10:52:00
5:08 AM,32.0,30.2,93,30.07,1.0,North,3.5,-,N/A,,Mist,10,2013-11-21 11:08:00
5:35 AM,32.0,30.2,93,30.07,0.8,North,4.6,-,N/A,,Mist,350,2013-11-21 11:35:00
5:47 AM,30.2,30.2,100,30.07,0.8,North,5.8,-,N/A,,Mist,350,2013-11-21 11:47:00
5:52 AM,30.9,30.0,96,30.10,0.2,North,4.6,-,N/A,Fog,Light Freezing Fog,350,2013-11-21 11:52:00
6:52 AM,32.0,30.9,96,30.12,0.2,North,5.8,-,N/A,Fog,Fog,350,2013-11-21 12:52:00
7:14 AM,33.8,32.0,93,30.10,0.2,NNE,5.8,-,N/A,Fog,Fog,20,2013-11-21 13:14:00
7:43 AM,35.6,33.8,93,30.11,0.8,North,4.6,-,N/A,,Overcast,350,2013-11-21 13:43:00
7:52 AM,34.0,33.1,96,30.14,1.2,NNW,4.6,-,N/A,,Overcast,330,2013-11-21 13:52:00
8:52 AM,37.0,35.1,93,30.17,1.8,NNW,6.9,-,N/A,,Overcast,340,2013-11-21 14:52:00
9:09 AM,37.4,35.6,93,30.15,2.0,North,8.1,-,N/A,,Overcast,350,2013-11-21 15:09:00
9:52 AM,37.9,36.0,93,30.17,3.0,North,5.8,-,N/A,,Overcast,10,2013-11-21 15:52:00
10:23 AM,39.2,37.4,93,30.15,3.0,North,6.9,-,N/A,,Mostly Cloudy,10,2013-11-21 16:23:00
10:52 AM,41.0,36.0,82,30.19,6.0,NNE,10.4,-,N/A,,Haze,20,2013-11-21 16:52:00
11:26 AM,41.0,35.6,81,30.16,7.0,NNE,11.5,-,N/A,,Overcast,20,2013-11-21 17:26:00
11:52 AM,41.0,36.0,82,30.17,7.0,NNE,8.1,-,N/A,,Mostly Cloudy,20,2013-11-21 17:52:00
12:52 PM,42.1,36.0,79,30.17,8.0,NNE,9.2,-,N/A,,Overcast,20,2013-11-21 18:52:00
1:52 PM,42.1,36.0,79,30.17,8.0,North,10.4,-,N/A,,Overcast,10,2013-11-21 19:52:00
2:52 PM,42.1,36.0,79,30.17,7.0,North,15.0,-,N/A,,Overcast,360,2013-11-21 20:52:00
3:52 PM,41.0,36.0,82,30.19,6.0,North,9.2,-,0.00,Rain,Light Rain,10,2013-11-21 21:52:00
4:09 PM,39.2,35.6,87,30.18,2.5,NNW,12.7,-,0.00,Rain,Light Rain,330,2013-11-21 22:09:00
4:21 PM,37.4,35.6,93,30.19,2.5,NW,12.7,-,0.00,Rain,Light Rain,320,2013-11-21 22:21:00
4:52 PM,36.0,35.1,97,30.22,2.5,NNW,13.8,-,0.01,Rain,Light Rain,330,2013-11-21 22:52:00
5:52 PM,35.1,33.1,92,30.25,2.5,NNW,13.8,-,0.01,Rain,Light Rain,330,2013-11-21 23:52:00
5:59 PM,35.6,33.8,93,30.22,6.0,NNW,13.8,-,0.00,Rain,Light Rain,330,2013-11-21 23:59:00
6:52 PM,35.1,32.0,89,30.26,6.0,NNW,13.8,-,0.00,Rain,Light Rain,340,2013-11-22 00:52:00
7:52 PM,34.0,33.1,96,30.29,5.0,NNW,13.8,-,0.00,,Overcast,340,2013-11-22 01:52:00
8:06 PM,33.8,33.8,100,30.26,4.0,NNW,12.7,-,N/A,,Overcast,340,2013-11-22 02:06:00
8:52 PM,35.1,33.1,92,30.29,4.0,NNW,11.5,-,0.00,Rain,Light Rain,340,2013-11-22 02:52:00
9:22 PM,33.8,32.0,93,30.27,4.0,NNW,12.7,-,0.00,Rain,Light Rain,340,2013-11-22 03:22:00
9:52 PM,33.1,32.0,96,30.31,4.0,NNW,11.5,-,0.01,Snow,Light Snow,330,2013-11-22 03:52:00
10:52 PM,33.1,30.9,92,30.32,2.5,NNW,12.7,-,0.02,Snow,Light Snow,330,2013-11-22 04:52:00
11:52 PM,32.0,30.0,92,30.34,2.5,NNW,12.7,-,0.01,Snow,Light Snow,330,2013-11-22 05:52:00